Hourly Data Report for October 18, 2015

All times are specified in Local Standard Time (LST). Add 1 hour to adjust for Daylight Saving Time where and when it is observed.

ST LEONARD CS
NEW BRUNSWICK

47°09'28.050" N
67°49'55.014" W
245.00 m
810I001
71019
WIY

Download Data

Hourly Data (October 2015)
Hourly Data Report for October 18, 2015
Temp Definition
°C
Dew Point Temp Definition
°C
Rel Hum Definition
%
Wind Dir Definition
10's deg

Wind Spd Definition
km/h
Visibility Definition
km
Stn Press Definition
kPa
Hmdx Definition


Wind Chill Definition


Weather Definition


TIME
00:00 -2.6 -3.0 97 29 7   98.45   -5 LegendNANA
01:00 -2.6 -3.0 97 30 6   98.47   -5 LegendNANA
02:00 -2.6 -2.9 97 29 7   98.48   -5 LegendNANA
03:00 -2.4 -2.9 96 29 11   98.49   -6 LegendNANA
04:00 -2.3 -3.0 95 29 11   98.49   -6 LegendNANA
05:00 -2.2 -3.0 94 29 13   98.54   -7 LegendNANA
06:00 -3.4 -5.0 89 29 13   98.57   -8 LegendNANA
07:00 -4.5 -5.7 91 27 10   98.60   -9 LegendNANA
08:00 -3.2 -5.0 87 29 11   98.66   -7 LegendNANA
09:00 -2.5 -4.7 85 29 12   98.71   -7 LegendNANA
10:00 -1.4 -4.2 82 30 16   98.71   -6 LegendNANA
11:00 -0.6 -4.9 72 30 23   98.71   -6 LegendNANA
12:00 -0.1 -4.2 74 30 18   98.72   -5 LegendNANA
13:00 -0.2 -4.9 71 30 22   98.69   -6 LegendNANA
14:00 -0.2 -5.1 69 31 18   98.69   -5 LegendNANA
15:00 0.3 -5.3 66 30 25   98.70     LegendNANA
16:00 -0.1 -3.2 79 30 29   98.73   -6 LegendNANA
17:00 -0.3 -4.3 75 30 24   98.79   -6 LegendNANA
18:00 -1.1 -5.1 74 31 18   98.86   -6 LegendNANA
19:00 -1.7 -5.2 77 30 16   98.93   -7 LegendNANA
20:00 -2.1 -5.5 77 31 18   98.98   -8 LegendNANA
21:00 -3.0 -5.4 83 30 17   99.00   -9 LegendNANA
22:00 -3.3 -5.3 86 30 15   99.04   -8 LegendNANA
23:00 -3.9 -6.1 84 31 11   99.05   -8 LegendNANA

Notes on Data Quality.

Legend

  • E = Estimated
  • M = Missing
  • NA = Not Available
  • ‡ = Partner data that is not subject to review by the National Climate Archives
Date modified: